Demopolis Municipal Airport, AL

11:39 AM CDT on September 23, 2019 (GMT -0500)
Demopolis Municipal Airport

Weather History for KDYA - July, 2019

Change the Weather History Date:

Wednesday, July 31, 2019

  Actual Average (WUND) Record (WUND)
Temperature  
Mean Temperature 82 °F -  
Max Temperature 95 °F - - (-1)
Min Temperature 69 °F - - (-1)
Cooling Degree Days 17    
Growing Degree Days 32 (Base 50)    
Moisture  
Dew Point 68 °F    
Average Humidity 70    
Maximum Humidity 100    
Minimum Humidity 29    
Precipitation  
Precipitation 0.00 in - - ()
Sea Level Pressure  
Sea Level Pressure 30.04 in    
Wind  
Wind Speed 1 mph ()    
Max Wind Speed 8 mph    
Max Gust Speed -    
Visibility 7.1 miles    
Events      
Averages and records for this station are not official NWS values.
T = Trace of Precipitation, MM = Missing Value Source: Averaged Metar Reports

Daily Weather History Graph

Daily Weather History Graph

Search for Another Location

Airport or City:

Astronomy

Jul. 31, 2019 Rise Set
Actual Time 6:05 AM CDT 7:50 PM CDT
Civil Twilight 5:38 AM CDT 8:17 PM CDT
Nautical Twilight 5:06 AM CDT 8:49 PM CDT
Astronomical Twilight 4:31 AM CDT 9:23 PM CDT
Moon 5:21 AM CDT (7/31) 7:47 PM CDT (7/31)
Length of Visible Light 14h 38m
Length of Day
13h 45m
Waning Crescent, 0% of the Moon is Illuminated
Jul 31
Waning Crescent
Jul 31
New
Aug 7
First Quarter
Aug 15
Full
Aug 23
Last Quarter

Hourly Weather History & Observations

Time (CDT) Temp. Heat Index Dew Point Humidity Pressure Visibility Wind Dir Wind Speed Gust Speed Precip Events Conditions
12:35 AM 71.8 °F - 68.7 °F 90% 30.04 in 7.0 mi Calm Calm - N/A   Clear
12:55 AM 72.0 °F - 69.3 °F 91% 30.04 in 7.0 mi Calm Calm - N/A   Clear
1:15 AM 71.8 °F - 69.1 °F 91% 30.04 in 7.0 mi Calm Calm - N/A   Scattered Clouds
1:35 AM 71.6 °F - 69.1 °F 92% 30.03 in 7.0 mi Calm Calm - N/A   Overcast
1:55 AM 71.4 °F - 68.9 °F 92% 30.04 in 7.0 mi Calm Calm - N/A   Overcast
2:15 AM 71.2 °F - 69.1 °F 93% 30.03 in 5.0 mi Calm Calm - N/A   Scattered Clouds
2:35 AM 71.2 °F - 69.3 °F 93% 30.03 in 7.0 mi Calm Calm - N/A   Scattered Clouds
2:55 AM 71.6 °F - 69.6 °F 93% 30.03 in 7.0 mi Calm Calm - N/A   Scattered Clouds
3:15 AM 71.6 °F - 69.8 °F 94% 30.03 in 7.0 mi Calm Calm - N/A   Mostly Cloudy
3:35 AM 71.6 °F - 69.8 °F 94% 30.02 in 7.0 mi Calm Calm - N/A   Scattered Clouds
3:55 AM 71.6 °F - 69.4 °F 93% 30.02 in 7.0 mi Calm Calm - N/A   Clear
4:15 AM 71.6 °F - 69.4 °F 93% 30.02 in 7.0 mi Calm Calm - N/A   Clear
4:35 AM 71.1 °F - 69.1 °F 93% 30.03 in 7.0 mi Calm Calm - N/A   Clear
5:15 AM 70.2 °F - 69.4 °F 98% 30.04 in 5.0 mi SE 3.5 mph - N/A   Scattered Clouds
5:35 AM 69.8 °F - 69.8 °F 100% 30.04 in 4.0 mi Calm Calm - N/A   Mostly Cloudy
5:55 AM - - - N/A% 30.04 in 5.0 mi Calm Calm - N/A   Scattered Clouds
6:15 AM 70.0 °F - 70.0 °F 100% 30.05 in 5.0 mi Calm Calm - N/A   Scattered Clouds
6:35 AM - - - N/A% 30.06 in 5.0 mi Calm Calm - N/A   Haze
6:55 AM - - - N/A% 30.06 in 5.0 mi Calm Calm - N/A   Haze
7:15 AM 71.1 °F - 71.1 °F 100% 30.07 in 7.0 mi Calm Calm - N/A   Scattered Clouds
7:35 AM 71.8 °F - 71.8 °F 100% 30.07 in 7.0 mi Calm Calm - N/A   Clear
7:55 AM 73.2 °F - 71.4 °F 94% 30.08 in 5.0 mi Calm Calm - N/A   Clear
8:15 AM 74.7 °F - 70.7 °F 87% 30.08 in 5.0 mi Calm Calm - N/A   Clear
8:55 AM 79.2 °F - 71.4 °F 77% 30.09 in 5.0 mi Calm Calm - N/A   Haze
9:35 AM 80.1 °F 83.7 °F 71.6 °F 75% 30.09 in 7.0 mi WNW 3.5 mph - N/A   Overcast
9:55 AM 81.5 °F 85.9 °F 71.8 °F 72% 30.09 in 7.0 mi West 3.5 mph - N/A   Overcast
10:15 AM 82.2 °F 86.6 °F 71.1 °F 69% 30.09 in 7.0 mi Calm Calm - N/A   Scattered Clouds
10:35 AM 84.2 °F 89.6 °F 71.6 °F 66% 30.09 in 5.0 mi East 4.6 mph - N/A   Haze
10:55 AM 85.6 °F 91.5 °F 71.8 °F 63% 30.09 in 7.0 mi South 3.5 mph - N/A   Mostly Cloudy
11:15 AM 86.4 °F 92.6 °F 72.1 °F 62% 30.09 in 7.0 mi SSE 3.5 mph - N/A   Mostly Cloudy
11:35 AM 88.2 °F 94.1 °F 71.1 °F 57% 30.09 in 7.0 mi Calm Calm - N/A   Mostly Cloudy
11:55 AM 88.7 °F 93.9 °F 70.3 °F 54% 30.08 in 7.0 mi ESE 6.9 mph - N/A   Scattered Clouds
12:15 PM 88.3 °F 93.2 °F 70.0 °F 54% 30.08 in 7.0 mi SW 3.5 mph - N/A   Clear
12:35 PM 89.8 °F 92.9 °F 66.9 °F 47% 30.08 in 5.0 mi SSW 3.5 mph - N/A   Haze
12:55 PM 89.1 °F 92.5 °F 67.8 °F 49% 30.07 in 10.0 mi South 3.5 mph - N/A   Clear
1:15 PM 90.9 °F 94.4 °F 67.5 °F 46% 30.06 in 7.0 mi South 5.8 mph - N/A   Scattered Clouds
1:35 PM 92.5 °F 92.6 °F 61.5 °F 35% 30.06 in 7.0 mi West 3.5 mph - N/A   Scattered Clouds
1:55 PM 92.8 °F 93.1 °F 61.5 °F 35% 30.05 in 7.0 mi SSW 4.6 mph - N/A   Scattered Clouds
2:15 PM 93.4 °F 93.5 °F 61.0 °F 34% 30.04 in 7.0 mi SSW 8.1 mph - N/A   Clear
2:35 PM 92.3 °F 92.7 °F 61.9 °F 36% 30.03 in 7.0 mi SE 3.5 mph - N/A   Clear
2:55 PM 94.5 °F 95.2 °F 61.7 °F 34% 30.02 in 7.0 mi WSW 8.1 mph - N/A   Scattered Clouds
3:15 PM 94.3 °F 94.5 °F 61.0 °F 33% 30.01 in 7.0 mi SW 5.8 mph - N/A   Mostly Cloudy
3:35 PM 94.6 °F 93.9 °F 59.2 °F 30% 30.01 in 10.0 mi SW 8.1 mph - N/A   Scattered Clouds
3:55 PM 95.0 °F 94.0 °F 57.7 °F 29% 30.00 in 7.0 mi West 3.5 mph - N/A   Clear
4:15 PM 93.4 °F 92.5 °F 58.1 °F 31% 29.99 in 10.0 mi West 6.9 mph - N/A   Clear
4:35 PM 93.2 °F 91.9 °F 57.2 °F 30% 29.99 in 7.0 mi West 6.9 mph - N/A   Clear
4:55 PM 92.3 °F 91.3 °F 58.6 °F 32% 29.99 in 10.0 mi WSW 4.6 mph - N/A   Scattered Clouds
5:15 PM 91.8 °F 91.5 °F 60.3 °F 35% 29.99 in 10.0 mi SSW 3.5 mph - N/A   Scattered Clouds
5:35 PM 90.9 °F 90.9 °F 61.0 °F 37% 30.01 in 7.0 mi SSW 3.5 mph - N/A   Scattered Clouds
5:55 PM 90.1 °F 90.9 °F 62.6 °F 40% 30.00 in 7.0 mi SSW 3.5 mph - N/A   Mostly Cloudy
6:15 PM 89.4 °F 90.5 °F 63.3 °F 42% 30.00 in 10.0 mi Calm Calm - N/A   Scattered Clouds
6:35 PM 88.0 °F 89.3 °F 64.4 °F 45% 30.00 in 10.0 mi Calm Calm - N/A   Clear
6:55 PM 83.1 °F 87.1 °F 69.6 °F 64% 30.01 in 10.0 mi Calm Calm - N/A   Clear
7:15 PM 81.7 °F 85.8 °F 71.1 °F 70% 30.01 in 7.0 mi NW 6.9 mph - N/A   Mostly Cloudy
7:35 PM 82.4 °F 87.0 °F 71.2 °F 69% 30.01 in 7.0 mi NNW 4.6 mph - N/A   Scattered Clouds
7:55 PM 81.7 °F 85.8 °F 71.2 °F 70% 30.00 in 7.0 mi Calm Calm - N/A   Clear
8:15 PM 80.8 °F 84.6 °F 71.1 °F 72% 30.01 in 10.0 mi Calm Calm - N/A   Clear
8:35 PM 78.6 °F - 71.1 °F 78% 30.01 in 7.0 mi Calm Calm - N/A   Clear
8:55 PM 77.2 °F - 71.1 °F 81% 30.02 in 10.0 mi Calm Calm - N/A   Clear
9:15 PM 76.1 °F - 71.1 °F 84% 30.02 in 10.0 mi Calm Calm - N/A   Clear
9:35 PM 75.7 °F - 70.9 °F 85% 30.03 in 7.0 mi Calm Calm - N/A   Clear
9:55 PM 75.4 °F - 71.6 °F 88% 30.03 in 7.0 mi Calm Calm - N/A   Scattered Clouds
10:15 PM 75.2 °F - 71.1 °F 87% 30.03 in 7.0 mi Calm Calm - N/A   Clear
10:35 PM 74.5 °F - 71.2 °F 90% 30.03 in 7.0 mi Calm Calm - N/A   Clear
10:55 PM 74.7 °F - 71.2 °F 89% 30.03 in 7.0 mi Calm Calm - N/A   Clear
11:15 PM 74.7 °F - 71.1 °F 88% 30.03 in 5.0 mi Calm Calm - N/A   Clear
11:35 PM 73.8 °F - 70.3 °F 89% 30.03 in 7.0 mi Calm Calm - N/A   Clear
11:55 PM 73.6 °F - 70.2 °F 89% 30.04 in 10.0 mi Calm Calm - N/A   Clear